[[{"header":{"parameterUnit":"m.s-1","parameterCategory":1,"la1":30.2991,"la2":30.254,"lo1":-89.0895,"lo2":-89.0444,"dy":0.0017,"dx":0.0017,"nx":28,"ny":28,"refTime":"2025-08-27T09:00:00:Z","depth":0,"parameterNumber":2,"parameterNumberName":"U-component_of_WINDS"},"data":[0,0,0,0,0,0,0,0,0,0,0,0,0,0,0,0,0,0,0,0,0,0,0,0,0,0,0,0,0,0,0,0,0,0,0,0,0,0,0,0,0,0,0,0,0,0,0,0,0,0,0,0,0,0,0,0,0,0,1.7972,1.7972,0,1.7939,1.7938,1.7938,1.7886,1.7886,1.7885,1.7884,1.7849,1.7849,1.7849,0,0,0,0,0,0,0,0,0,0,0,0,0,1.7989,1.7989,1.7972,1.7972,1.7971,1.7939,1.7938,1.7938,1.7887,1.7886,1.7884,1.7883,1.7849,1.7849,1.7849,0,0,0,0,0,0,0,0,0,0,0,0,0,1.7971,1.7989,1.7972,1.7942,1.7939,1.7939,1.7938,1.7938,1.7887,1.7886,1.7884,1.7883,1.7849,1.7849,1.7849,1.7876,0,0,1.7848,1.7848,0,0,0,0,0,0,0,0,1.7972,1.797,1.7947,1.7944,1.794,1.7915,1.7931,1.7917,1.7887,1.7907,1.7884,1.7882,1.7872,1.787,1.7867,1.7874,1.7872,1.7848,1.7848,1.7848,1.7848,0,0,0,0,0,0,0,1.7973,1.7972,1.7959,1.7946,1.7943,1.7929,1.7925,1.7928,1.7897,1.7905,1.7901,1.7898,1.787,1.7867,1.7865,1.7872,1.7848,1.7848,1.7848,1.7848,1.7895,1.7896,0,0,0,0,0,0,1.7979,1.7973,1.796,1.7958,1.7953,1.793,1.7925,1.7925,1.7897,1.7892,1.7899,1.7895,1.7868,1.7866,1.7864,1.789,1.7848,1.7848,1.7848,1.7894,1.7895,1.7897,0,0,0,0,0,0,1.798,1.7979,1.7961,1.7964,1.7961,1.7931,1.7931,1.7925,1.7922,1.7893,1.7887,1.7902,1.7867,1.7864,1.7872,1.7889,1.7848,1.7848,1.7892,1.7894,1.7896,1.7945,0,0,0,0,0,0,1.7981,1.7979,1.799,1.7965,1.7961,1.7971,1.7932,1.7925,1.7922,1.7917,1.7894,1.7889,1.7865,1.7873,1.7872,1.7888,1.7848,1.7891,1.7893,1.7895,1.7942,1.7949,1.7955,0,0,0,0,0,1.7981,1.8006,1.7991,1.7989,1.7974,1.7972,1.797,1.7943,1.7923,1.7933,1.7914,1.7889,1.7887,1.7874,1.7873,1.7889,1.7889,1.7892,1.7895,1.7939,1.7947,1.7954,0,0,0,0,0,0,1.8034,1.8002,1.7985,1.8002,1.799,1.7963,1.7975,1.7953,1.7946,1.7941,1.7908,1.7903,1.7915,1.7903,1.7888,1.7911,1.7884,1.7887,1.7918,1.7926,1.7932,1.7933,1.7848,0,0,0,0,0,1.8047,1.8049,1.8021,1.8039,1.8034,1.8005,1.8004,1.7984,1.797,1.7964,1.7946,1.7933,1.7929,1.7927,1.7922,1.7941,1.7933,1.7951,1.7957,1.7962,1.7964,1.797,1.7976,1.7906,1.7906,1.7906,0,0,1.8075,1.8058,1.8062,1.8049,1.8037,1.8038,1.8001,1.8005,1.8005,1.7965,1.797,1.7956,1.7939,1.7952,1.7956,1.7942,1.7982,1.7966,1.7971,1.797,1.7973,1.798,1.7986,1.7908,1.7908,1.7908,0,0,1.8126,1.8115,1.8127,1.8115,1.8098,1.8078,1.8081,1.8057,1.8046,1.8051,1.802,1.8019,1.8014,1.8002,1.7995,1.8039,1.8015,1.8039,1.807,1.8076,1.8081,1.8086,1.8098,1.8104,1.8041,1.8042,1.8042,0,1.8163,1.8164,1.8136,1.814,1.8134,1.8098,1.8108,1.8098,1.808,1.8076,1.8061,1.8051,1.8038,1.8045,1.8055,1.8052,1.8052,1.804,1.8083,1.8087,1.8091,1.8102,1.8108,1.8044,1.8044,1.8044,1.8043,0,1.8208,1.8209,1.8221,1.8203,1.8199,1.8206,1.8177,1.8176,1.8157,1.8138,1.8142,1.8124,1.8113,1.8114,1.8096,1.8118,1.8109,1.8089,1.8061,1.8101,1.8111,1.8115,1.8048,1.8047,1.8046,1.8046,0,0,1.8291,1.8256,1.826,1.825,1.8227,1.8227,1.8232,1.8221,1.8219,1.8208,1.8209,1.8205,1.8185,1.8177,1.8157,1.8162,1.8193,1.814,1.8139,1.8148,1.8213,1.8226,1.8232,1.8178,1.8179,1.818,1.8213,0,1.8335,1.8341,1.8315,1.8327,1.8326,1.8291,1.8294,1.828,1.8263,1.8258,1.8239,1.8235,1.8211,1.8206,1.8209,1.8189,1.8205,1.8186,1.8177,1.8177,1.818,1.8238,1.8253,1.8286,1.8217,1.8218,1.8219,0,1.8387,1.8376,1.8389,1.8362,1.8361,1.8365,1.8351,1.8348,1.833,1.8317,1.8307,1.8283,1.8284,1.8259,1.8259,1.8246,1.8241,1.823,1.823,1.8226,1.8199,1.8233,1.8296,1.83,1.8225,1.8225,1.8224,0,1.8441,1.8431,1.8436,1.8429,1.84,1.8403,1.839,1.8371,1.8365,1.8353,1.8348,1.8337,1.833,1.8321,1.8294,1.8279,1.8295,1.8269,1.8282,1.8283,1.8286,1.8285,1.8346,1.8287,1.8287,1.8287,1.8287,0,1.8491,1.85,1.846,1.8463,1.847,1.8439,1.8447,1.8431,1.8414,1.8412,1.8381,1.838,1.8345,1.8339,1.8318,1.8319,1.8317,1.8305,1.8298,1.8306,1.8307,1.83,1.8296,1.8288,1.8288,1.8288,1.8287,0,1.8553,1.8528,1.853,1.8501,1.8494,1.85,1.8475,1.8475,1.8456,1.8454,1.8451,1.8421,1.8412,1.8384,1.8369,1.8354,1.836,1.8351,1.8366,1.8362,1.8376,1.8374,1.8432,1.8437,1.8378,1.8378,1.8379,0,1.8586,1.8591,1.8562,1.8558,1.8547,1.8542,1.8535,1.8505,1.8499,1.8477,1.848,1.8469,1.8458,1.8445,1.8421,1.8408,1.8396,1.8417,1.8394,1.84,1.8392,1.8391,1.839,1.8421,1.8422,1.8423,1.8423,0,1.8645,1.8631,1.8623,1.861,1.8602,1.8591,1.8577,1.8576,1.8541,1.8536,1.8526,1.8518,1.8501,1.8489,1.8472,1.8458,1.8434,1.8431,1.8433,1.8439,1.8447,1.844,1.8377,1.8429,1.8429,1.8428,1.8428,1.8428,1.869,1.8692,1.8671,1.8662,1.8649,1.8636,1.8634,1.8614,1.8606,1.8589,1.8572,1.8564,1.8543,1.8517,1.8505,1.8497,1.8484,1.8488,1.8488,1.8489,1.8491,1.845,1.8494,1.8494,1.8494,1.8493,1.8493,0,1.8745,1.8729,1.8722,1.8703,1.8695,1.8674,1.8657,1.8652,1.8645,1.8628,1.8617,1.8605,1.8593,1.8567,1.8552,1.855,1.8539,1.8547,1.8546,1.8542,1.8505,1.8503,1.8557,1.8557,1.8557,1.8557,1.8557,1.8557,1.8772,1.8773,1.8757,1.8749,1.8733,1.8725,1.8717,1.8704,1.869,1.8677,1.8667,1.865,1.8629,1.8612,1.8599,1.8591,1.8586,1.8598,1.8586,1.8551,1.8545,1.854,1.8538,1.8597,1.8597,1.8624,1.8624,1.8624]},{"header":{"parameterUnit":"m.s-1","parameterCategory":1,"la1":30.2991,"la2":30.254,"lo1":-89.0895,"lo2":-89.0444,"dy":0.0017,"dx":0.0017,"nx":28,"ny":28,"refTime":"2025-08-27T09:00:00:Z","depth":0,"parameterNumber":3,"parameterNumberName":"V-component_of_WINDS"},"data":[0,0,0,0,0,0,0,0,0,0,0,0,0,0,0,0,0,0,0,0,0,0,0,0,0,0,0,0,0,0,0,0,0,0,0,0,0,0,0,0,0,0,0,0,0,0,0,0,0,0,0,0,0,0,0,0,0,0,3.5931,3.5933,0,3.6032,3.6033,3.6034,3.6015,3.6013,3.6011,3.601,3.6108,3.6112,3.6116,0,0,0,0,0,0,0,0,0,0,0,0,0,3.5716,3.572,3.5931,3.5933,3.5934,3.6032,3.6033,3.6035,3.6015,3.6013,3.6011,3.6009,3.6107,3.6112,3.6117,0,0,0,0,0,0,0,0,0,0,0,0,0,3.5812,3.5721,3.5931,3.5936,3.5938,3.6032,3.6033,3.6035,3.6016,3.6013,3.601,3.6008,3.6105,3.6111,3.6117,3.6211,0,0,3.6137,3.614,0,0,0,0,0,0,0,0,3.5807,3.582,3.5934,3.5936,3.5938,3.6008,3.5993,3.6094,3.6016,3.5986,3.601,3.6007,3.6077,3.6085,3.611,3.6216,3.622,3.6138,3.6142,3.6144,3.6146,0,0,0,0,0,0,0,3.58,3.5816,3.5971,3.5936,3.5938,3.5931,3.5942,3.6012,3.6045,3.5988,3.5987,3.6,3.6077,3.6104,3.6112,3.6222,3.6138,3.6143,3.6147,3.615,3.6406,3.6409,0,0,0,0,0,0,3.5793,3.581,3.5968,3.5974,3.5864,3.5937,3.5949,3.5988,3.6044,3.605,3.6002,3.5998,3.6094,3.6105,3.6115,3.6227,3.6144,3.615,3.6154,3.6403,3.6407,3.641,0,0,0,0,0,0,3.5788,3.5807,3.5964,3.5892,3.5911,3.5944,3.5988,3.5992,3.6018,3.6055,3.606,3.6024,3.6092,3.6106,3.6187,3.623,3.6153,3.6159,3.64,3.6404,3.6408,3.6452,0,0,0,0,0,0,3.5782,3.5805,3.5843,3.5893,3.5915,3.6036,3.5991,3.5996,3.603,3.6027,3.6076,3.6082,3.6091,3.6178,3.6194,3.6238,3.6164,3.6396,3.6402,3.6407,3.6447,3.6457,3.6466,0,0,0,0,0,3.5774,3.5851,3.5845,3.5864,3.5963,3.6039,3.6051,3.6062,3.6034,3.6071,3.6093,3.608,3.6223,3.6186,3.6204,3.625,3.6393,3.64,3.6407,3.6442,3.6455,3.6466,0,0,0,0,0,0,3.5804,3.5857,3.5852,3.5947,3.5989,3.6035,3.6082,3.6076,3.6125,3.6119,3.6129,3.614,3.6222,3.6244,3.6202,3.6343,3.6304,3.6314,3.6325,3.6337,3.6347,3.6339,3.617,0,0,0,0,0,3.5822,3.588,3.5923,3.6003,3.6024,3.605,3.6083,3.6087,3.613,3.6147,3.6176,3.6216,3.627,3.6305,3.6357,3.645,3.6459,3.6491,3.65,3.6508,3.6516,3.6565,3.6578,3.6432,3.6432,3.6432,0,0,3.5858,3.5895,3.5931,3.601,3.6042,3.61,3.6064,3.6128,3.617,3.6156,3.6234,3.6257,3.6302,3.6389,3.6429,3.641,3.6559,3.6517,3.6523,3.6527,3.6573,3.6587,3.6599,3.6436,3.6436,3.6435,0,0,3.5955,3.599,3.6059,3.6092,3.6142,3.6159,3.6175,3.6223,3.6237,3.6316,3.6306,3.6356,3.6449,3.6481,3.651,3.6616,3.6605,3.6633,3.6683,3.673,3.6741,3.6752,3.6787,3.68,3.6641,3.6641,3.6642,0,3.5994,3.6083,3.6095,3.6159,3.6192,3.6184,3.6252,3.6283,3.6347,3.6369,3.6348,3.6464,3.6494,3.6587,3.6613,3.6637,3.6654,3.6627,3.6739,3.675,3.6759,3.6793,3.6807,3.6644,3.6644,3.6644,3.6643,0,3.6127,3.6188,3.6238,3.6301,3.634,3.6406,3.6425,3.6463,3.6464,3.6482,3.656,3.6596,3.6654,3.6676,3.6678,3.6769,3.6756,3.6737,3.6698,3.6776,3.6808,3.6821,3.6648,3.6647,3.6647,3.6646,0,0,3.6245,3.6313,3.6331,3.6358,3.6412,3.6459,3.6523,3.658,3.6611,3.6655,3.6708,3.6786,3.6768,3.6801,3.6805,3.6847,3.6926,3.6823,3.6824,3.6839,3.7025,3.7038,3.7053,3.6919,3.6922,3.6924,3.7021,0,3.6345,3.646,3.6472,3.6574,3.6629,3.6621,3.6676,3.6714,3.6732,3.6779,3.6798,3.6853,3.6827,3.6846,3.6887,3.6908,3.6963,3.6901,3.6966,3.6968,3.6953,3.707,3.7084,3.7174,3.7034,3.7036,3.7038,0,3.6477,3.6525,3.6633,3.6677,3.6701,3.6751,3.6803,3.685,3.6892,3.6901,3.6937,3.6936,3.6999,3.6959,3.7045,3.7002,3.7029,3.7043,3.7047,3.7052,3.7006,3.7076,3.7203,3.7216,3.7058,3.7056,3.7055,0,3.6549,3.6641,3.6717,3.6741,3.6795,3.683,3.6854,3.6893,3.6926,3.6971,3.6992,3.7044,3.7072,3.7111,3.7122,3.7093,3.7207,3.7168,3.7215,3.7215,3.7238,3.7236,3.7369,3.7259,3.7259,3.7258,3.7258,0,3.6658,3.6724,3.675,3.6797,3.6869,3.6881,3.6951,3.6973,3.7008,3.7056,3.7052,3.7097,3.7111,3.7158,3.7167,3.7236,3.7249,3.7257,3.7258,3.7256,3.7255,3.7273,3.7266,3.7262,3.7261,3.7261,3.726,0,3.6751,3.6772,3.6853,3.6898,3.691,3.6961,3.6998,3.7042,3.7059,3.712,3.7135,3.7161,3.7216,3.7232,3.7298,3.7304,3.7383,3.738,3.737,3.7369,3.7414,3.7408,3.7561,3.7581,3.7459,3.7461,3.7462,0,3.6819,3.6869,3.6919,3.6952,3.6977,3.7031,3.7064,3.7077,3.7112,3.7162,3.7199,3.7253,3.7298,3.7385,3.7408,3.7458,3.7455,3.7505,3.7462,3.7458,3.7453,3.7449,3.7453,3.7512,3.7513,3.7515,3.7515,0,3.6936,3.6943,3.6993,3.7045,3.7086,3.7128,3.7168,3.7194,3.7212,3.7251,3.7308,3.7343,3.741,3.7463,3.7513,3.7535,3.7527,3.7529,3.7542,3.754,3.7531,3.7534,3.7389,3.7525,3.7524,3.7523,3.7523,3.7522,3.7016,3.706,3.7101,3.7156,3.7188,3.7225,3.7267,3.7289,3.7337,3.7394,3.7398,3.7459,3.7496,3.7563,3.7588,3.7634,3.7619,3.7638,3.7643,3.7647,3.7649,3.7525,3.7643,3.7643,3.7643,3.7642,3.7642,0,3.7131,3.7157,3.7208,3.7264,3.7306,3.7297,3.734,3.7376,3.743,3.7467,3.751,3.7574,3.7625,3.7652,3.7703,3.7734,3.7732,3.7747,3.7743,3.7748,3.7661,3.7644,3.7748,3.7748,3.7748,3.7748,3.7747,3.7747,3.7196,3.7268,3.728,3.7367,3.7392,3.7452,3.7477,3.7511,3.754,3.7612,3.7655,3.7672,3.7704,3.7757,3.7802,3.7809,3.7827,3.7843,3.7847,3.7765,3.7755,3.7744,3.7728,3.7847,3.7848,3.793,3.7931,3.7932]}]]